[[{"header":{"parameterUnit":"m.s-1","parameterCategory":1,"la1":30.2992,"la2":30.254,"lo1":-89.0895,"lo2":-89.0443,"dy":0.0025,"dx":0.0025,"nx":19,"ny":19,"refTime":"2026-03-30T09:00:00:Z","depth":0,"parameterNumber":2,"parameterNumberName":"U-component_of_WINDS"},"data":[0,0,0,-3.8329,-3.8331,-3.8394,-3.8394,-3.8482,-3.8483,0,0,0,0,0,0,0,0,0,0,0,-3.8316,-3.8317,-3.8329,-3.8331,-3.8394,-3.8394,-3.8482,-3.8483,0,0,0,0,0,0,0,0,0,0,0,-3.8316,-3.8317,-3.8318,-3.8331,-3.8394,-3.8394,-3.8482,-3.8431,0,0,0,0,0,0,0,0,0,0,-3.8368,-3.8363,-3.8317,-3.8318,-3.8331,-3.8394,-3.8394,-3.8428,-3.8434,-3.8457,0,-3.848,0,-3.8483,-3.8489,-3.849,0,0,0,-3.8326,-3.8358,-3.837,-3.8318,-3.8332,-3.8394,-3.8364,-3.8432,-3.8438,-3.8465,-3.8482,-3.8485,-3.8485,-3.849,-3.8491,-3.864,-3.8641,0,0,-3.8322,-3.8331,-3.8365,-3.8374,-3.8367,-3.8362,-3.8366,-3.8435,-3.8454,-3.8482,-3.8486,-3.8486,-3.8491,-3.8491,-3.8639,-3.864,0,0,0,-3.8316,-3.8329,-3.8338,-3.8371,-3.8382,-3.8364,-3.8369,-3.8451,-3.8453,-3.8487,-3.8487,-3.8491,-3.8492,-3.8638,-3.864,-3.8692,0,0,0,-3.8313,-3.8325,-3.8337,-3.8343,-3.8381,-3.8418,-3.8383,-3.8448,-3.8456,-3.8487,-3.8491,-3.8493,-3.8637,-3.8639,-3.8688,-3.8715,0,0,0,-3.831,-3.8324,-3.8336,-3.8343,-3.8371,-3.8416,-3.8423,-3.845,-3.8456,-3.849,-3.8494,-3.8636,-3.8639,-3.8685,-3.871,-3.8755,0,0,0,-3.8309,-3.8383,-3.8337,-3.8419,-3.8371,-3.845,-3.8422,-3.8481,-3.8516,-3.8492,-3.8637,-3.8639,-3.8684,-3.8706,-3.8751,-3.8792,-3.8811,0,0,-3.8407,-3.8395,-3.8442,-3.8403,-3.8492,-3.8439,-3.8536,-3.856,-3.8555,-3.8611,-3.8615,-3.869,-3.8709,-3.8754,-3.8917,-3.8932,0,0,0,-3.8476,-3.851,-3.8532,-3.8566,-3.8587,-3.8605,-3.8614,-3.8622,-3.867,-3.8587,-3.8719,-3.8731,-3.8756,-3.8775,-3.8788,-3.8808,-3.8649,-3.8649,-3.8649,-3.8625,-3.8615,-3.8692,-3.8689,-3.8722,-3.873,-3.8755,-3.8767,-3.8748,-3.8779,-3.8795,-3.8896,-3.8918,-3.8928,-3.8949,-3.8818,-3.8818,-3.8819,-3.8819,-3.8765,-3.881,-3.8782,-3.8845,-3.8833,-3.8887,-3.8896,-3.888,-3.8926,-3.8883,-3.8905,-3.8857,-3.8945,-3.8962,-3.8823,-3.8822,-3.8821,-3.8821,-3.8821,-3.8859,-3.8879,-3.8888,-3.8935,-3.8972,-3.8966,-3.9011,-3.8999,-3.8988,-3.901,-3.9024,-3.9023,-3.9018,-3.9018,-3.9018,-3.9019,-3.9019,-3.9019,-3.902,-3.8953,-3.8962,-3.9002,-3.9028,-3.9047,-3.907,-3.9078,-3.9095,-3.9112,-3.9099,-3.9099,-3.9074,-3.8956,-3.8925,-3.9025,-3.9024,-3.9023,-3.9023,-3.9022,-3.9094,-3.906,-3.9122,-3.914,-3.9169,-3.9204,-3.9189,-3.9225,-3.9238,-3.926,-3.9231,-3.9147,-3.9133,-3.9123,-3.9097,-3.9235,-3.9235,-3.9235,-3.9235,-3.9172,-3.9164,-3.9223,-3.9253,-3.9282,-3.9273,-3.934,-3.9345,-3.9345,-3.9352,-3.9331,-3.9296,-3.9286,-3.9278,-3.9265,-3.924,-3.9412,-3.9412,-3.9412,-3.9257,-3.9251,-3.9311,-3.9311,-3.9332,-3.9349,-3.9411,-3.9445,-3.9438,-3.9419,-3.9356,-3.9349,-3.9293,-3.9276,-3.9253,-3.9232,-3.9187,0,0]},{"header":{"parameterUnit":"m.s-1","parameterCategory":1,"la1":30.2992,"la2":30.254,"lo1":-89.0895,"lo2":-89.0443,"dy":0.0025,"dx":0.0025,"nx":19,"ny":19,"refTime":"2026-03-30T09:00:00:Z","depth":0,"parameterNumber":3,"parameterNumberName":"V-component_of_WINDS"},"data":[0,0,0,4.1454,4.146,4.1762,4.1763,4.2129,4.2132,0,0,0,0,0,0,0,0,0,0,0,4.1356,4.1358,4.1453,4.1461,4.1761,4.1763,4.2128,4.2132,0,0,0,0,0,0,0,0,0,0,0,4.1355,4.1357,4.136,4.1462,4.1761,4.1763,4.2128,4.1906,0,0,0,0,0,0,0,0,0,0,4.1617,4.1518,4.1357,4.136,4.1463,4.1761,4.1763,4.1896,4.192,4.1985,0,4.2043,0,4.2094,4.2156,4.2157,0,0,0,4.1466,4.1498,4.1588,4.1361,4.1466,4.176,4.1627,4.191,4.1937,4.2017,4.2049,4.2063,4.21,4.2158,4.216,4.2526,4.2527,0,0,4.145,4.1404,4.1569,4.1605,4.1561,4.1618,4.1637,4.1926,4.1956,4.205,4.2071,4.2106,4.216,4.2163,4.2524,4.2526,0,0,0,4.1398,4.1392,4.1475,4.159,4.1646,4.1626,4.1648,4.1944,4.1975,4.2076,4.211,4.2162,4.2167,4.2523,4.2525,4.2556,0,0,0,4.1388,4.1362,4.1468,4.1443,4.164,4.1799,4.1658,4.1954,4.1989,4.2108,4.2162,4.217,4.2521,4.2524,4.2552,4.2577,0,0,0,4.1339,4.1357,4.1398,4.144,4.1568,4.1795,4.1843,4.1963,4.201,4.2157,4.2171,4.252,4.2524,4.2548,4.2572,4.2663,0,0,0,4.1272,4.1417,4.1397,4.1572,4.1565,4.1813,4.1842,4.2027,4.2157,4.2164,4.2522,4.2525,4.2547,4.2568,4.2659,4.2734,4.276,0,0,4.1429,4.1434,4.1541,4.1532,4.1772,4.177,4.2014,4.2174,4.2226,4.2422,4.2432,4.2553,4.2571,4.2662,4.2922,4.2943,0,0,0,4.1575,4.1651,4.1725,4.1849,4.1977,4.209,4.2218,4.2278,4.2447,4.2319,4.2611,4.2623,4.2679,4.2717,4.2735,4.2786,4.254,4.254,4.2539,4.173,4.1796,4.1977,4.2079,4.2199,4.2332,4.2435,4.2538,4.2563,4.2632,4.2691,4.2841,4.2883,4.2897,4.295,4.2734,4.2734,4.2734,4.2734,4.1968,4.2087,4.2124,4.2314,4.2381,4.254,4.2674,4.2688,4.2845,4.2801,4.2853,4.28,4.2918,4.2968,4.2737,4.2737,4.2736,4.2736,4.2736,4.2078,4.2148,4.2221,4.241,4.2548,4.2645,4.2796,4.285,4.2901,4.2953,4.3022,4.3022,4.303,4.2982,4.2983,4.2983,4.2984,4.2984,4.2984,4.2165,4.2247,4.237,4.2522,4.2611,4.2734,4.2872,4.296,4.3071,4.3098,4.3099,4.3119,4.2918,4.2867,4.2993,4.2991,4.299,4.2989,4.2989,4.2384,4.2344,4.2534,4.2624,4.2808,4.2943,4.3012,4.3187,4.3268,4.3341,4.3352,4.3193,4.32,4.3186,4.3145,4.3336,4.3336,4.3336,4.3336,4.2478,4.2489,4.2698,4.2838,4.2982,4.3064,4.3276,4.3385,4.3489,4.3543,4.3523,4.3472,4.3455,4.3473,4.3453,4.3415,4.3671,4.3671,4.3671,4.2618,4.2646,4.2817,4.2924,4.3073,4.32,4.3401,4.356,4.3669,4.3686,4.3587,4.3573,4.3491,4.3461,4.3475,4.3443,4.3374,0,0]}]]